Location: Maignaut
(43.8886°N, 0.4051°E)
Time: 02:53:10
(UTC+00:00)

Cosmos 1818 - Pass Details

Date: 17 January 2021
Orbit: 773 x 800 km, 65.0° (Epoch: 04 March)

Event Time Altitude Azimuth Distance (km) Brightness Sun altitude
Rises 18:17:03 0° 182° (S) 3,256 7.0 -15.6°
Reaches altitude 10° 18:19:42 10° 171° (S) 2,337 6.1 -16.0°
Maximum altitude 18:24:17 29° 112° (ESE) 1,412 4.4 -16.8°
Enters shadow 18:25:17 27° 93° (E) 1,473 4.4 -17.0°
